Date String (YYYY-MM-DD hh:mm:ss) UTC,Instrument flags,Ambient pressure (hPa),Sample flow (lpm),Bypass flow (lpm),Sample temperature (°C),Ambient temperature (°C),ASC tube jacket temperature (°C),LED temperature (°C),Box temperature (°C),Sample RH (%),Span deviation,Mass concentration (μg/m³),Mass concentration (μg/m³),Mass concentration (μg/m³)
DateTimeUTC,F1_M11,P_M11,Q1_M11,Q2_M11,T1_M11,T2_M11,T3_M11,T4_M11,T5_M11,U1_M11,ZSPAN_M11,X0_M11,X2_M11,X1_M11
2023-01-23 08:00:00,,0823.9,5.00,0.00,22.7,21.2,00.0,31.6,24.6,11.4,-000.0,0030.18,0021.77,0021.22
2023-01-23 08:01:00,,0824.0,5.00,0.00,22.7,21.2,00.0,31.5,24.5,11.4,-000.7,0030.25,0021.83,0021.29
2023-01-23 08:02:00,,0824.0,5.01,0.00,22.7,21.1,00.0,31.5,24.4,11.5,-001.0,0030.62,0021.91,0021.36
2023-01-23 08:03:00,,0824.0,5.00,0.00,22.7,20.9,00.0,31.5,24.4,11.5,-000.6,0030.83,0021.96,0021.40
2023-01-23 08:04:00,,0824.0,5.00,0.00,22.6,20.8,00.0,31.5,24.3,11.5,-000.1,0031.19,0021.97,0021.41
2023-01-23 08:05:00,,0823.9,4.99,0.00,22.6,20.6,00.0,31.5,24.2,11.6,0000.4,0031.84,0021.99,0021.39
2023-01-23 08:06:00,,0824.0,5.01,0.00,22.5,20.5,00.0,31.5,24.1,11.6,0000.4,0031.81,0021.90,0021.32
2023-01-23 08:07:00,,0824.0,4.99,0.00,22.5,20.5,00.0,31.4,24.1,11.7,0000.2,0031.69,0021.85,0021.24
2023-01-23 08:08:00,,0824.0,5.01,0.00,22.4,20.6,00.0,31.4,24.1,11.7,0000.3,0032.09,0021.78,0021.16
2023-01-23 08:09:00,,0824.0,5.00,0.00,22.4,20.7,00.0,31.4,24.1,11.7,0000.7,0031.74,0021.69,0021.07
2023-01-23 08:10:00,,0824.0,5.01,0.00,22.5,21.3,00.0,31.3,24.3,11.6,0000.5,0031.38,0021.60,0020.98
2023-01-23 08:11:00,,0824.0,4.99,0.00,22.6,22.2,00.0,31.3,24.5,11.5,0000.5,0031.29,0021.50,0020.86
2023-01-23 08:12:00,,0824.1,5.01,0.00,22.7,23.0,00.0,31.4,24.7,11.5,0001.2,0031.29,0021.42,0020.77
2023-01-23 08:13:00,,0824.1,5.00,0.00,22.7,22.8,00.0,31.4,24.7,11.4,0001.1,0030.96,0021.31,0020.67
2023-01-23 08:14:00,,0824.1,4.99,0.00,22.8,22.4,00.0,31.4,24.7,11.5,0001.0,0030.92,0021.28,0020.60
2023-01-23 08:15:00,,0824.1,5.01,0.00,22.8,22.1,00.0,31.4,24.6,11.5,0000.8,0030.71,0021.28,0020.58
2023-01-23 08:16:00,,0824.1,5.00,0.00,22.7,21.8,00.0,31.5,24.6,11.5,0001.0,0030.70,0021.26,0020.56
2023-01-23 08:17:00,,0824.1,5.00,0.00,22.7,21.6,00.0,31.5,24.6,11.5,0001.3,0030.82,0021.37,0020.62
2023-01-23 08:18:00,,0824.1,4.99,0.00,22.7,21.5,00.0,31.5,24.5,11.5,0001.4,0031.02,0021.43,0020.66
2023-01-23 08:19:00,,0824.1,4.99,0.00,22.7,21.4,00.0,31.5,24.5,11.5,0001.6,0030.66,0021.47,0020.68
2023-01-23 08:20:00,,0824.1,5.01,0.00,22.7,21.3,00.0,31.5,24.4,11.6,0001.5,0030.70,0021.54,0020.70
2023-01-23 08:21:00,,0824.1,5.00,0.00,22.7,21.3,00.0,31.5,24.4,11.5,0001.7,0031.30,0021.63,0020.73
2023-01-23 08:22:00,,0824.2,4.99,0.00,22.7,21.2,00.0,31.5,24.4,11.5,0001.8,0031.62,0021.77,0020.84
2023-01-23 08:23:00,,0824.2,4.98,0.00,22.7,21.2,00.0,31.4,24.4,11.6,0001.5,0031.84,0021.89,0020.95
2023-01-23 08:24:00,,0824.2,5.02,0.00,22.6,21.2,00.0,31.4,24.4,11.6,0001.5,0032.32,0022.02,0021.03
2023-01-23 08:25:00,,0824.2,5.01,0.00,22.6,21.2,00.0,31.4,24.4,11.6,0001.3,0033.35,0022.10,0021.10
2023-01-23 08:26:00,,0824.2,5.01,0.00,22.6,21.1,00.0,31.4,24.4,11.7,0001.2,0034.23,0022.16,0021.15
2023-01-23 08:27:00,,0824.2,5.01,0.00,22.6,21.1,00.0,31.4,24.4,11.8,0001.0,0034.75,0022.20,0021.15
2023-01-23 08:28:00,,0824.3,5.00,0.00,22.6,21.1,00.0,31.4,24.4,11.8,0000.7,0034.69,0022.19,0021.10
2023-01-23 08:29:00,,0824.3,5.02,0.00,22.6,21.1,00.0,31.4,24.4,11.9,0000.6,0034.87,0022.17,0021.05
2023-01-23 08:30:00,,0824.3,4.99,0.00,22.6,21.1,00.0,31.4,24.4,11.9,0000.3,0034.84,0022.17,0021.06
2023-01-23 08:31:00,,0824.3,5.02,0.00,22.6,21.1,00.0,31.4,24.3,11.9,0000.6,0035.27,0022.21,0021.09
2023-01-23 08:32:00,,0824.3,4.99,0.00,22.6,21.1,00.0,31.4,24.3,11.9,0001.1,0035.30,0022.29,0021.18
2023-01-23 08:33:00,,0824.4,4.97,0.00,22.6,21.1,00.0,31.4,24.3,11.8,0001.0,0035.60,0022.38,0021.29
2023-01-23 08:34:00,,0824.4,5.00,0.00,22.6,21.0,00.0,31.4,24.3,11.9,0001.1,0035.82,0022.46,0021.31
2023-01-23 08:35:00,,0824.4,5.00,0.00,22.5,21.0,00.0,31.4,24.3,11.9,0001.2,0035.82,0022.55,0021.38
2023-01-23 08:36:00,,0824.4,5.00,0.00,22.5,21.0,00.0,31.4,24.2,11.9,0001.3,0035.03,0022.62,0021.43
2023-01-23 08:37:00,,0824.4,4.99,0.00,22.5,21.1,00.0,31.3,24.2,12.0,0001.4,0034.53,0022.68,0021.50
2023-01-23 08:38:00,,0824.5,5.00,0.00,22.6,21.8,00.0,31.3,24.4,11.9,0001.6,0033.64,0022.74,0021.54
2023-01-23 08:39:00,,0824.4,4.99,0.00,22.7,22.7,00.0,31.3,24.6,11.9,0001.6,0033.48,0022.67,0021.54
2023-01-23 08:40:00,,0824.4,4.99,0.00,22.8,23.1,00.0,31.4,24.8,11.8,0001.8,0033.31,0022.67,0021.58
2023-01-23 08:41:00,,0824.4,5.00,0.00,22.8,22.6,00.0,31.4,24.8,11.8,0001.4,0033.45,0022.67,0021.61
2023-01-23 08:42:00,,0824.4,4.99,0.00,22.8,22.2,00.0,31.4,24.7,11.9,0001.2,0033.08,0022.59,0021.55
2023-01-23 08:43:00,,0824.5,5.01,0.00,22.8,22.0,00.0,31.5,24.6,11.9,0000.8,0033.19,0022.45,0021.43
2023-01-23 08:44:00,,0824.5,5.01,0.00,22.8,21.8,00.0,31.5,24.6,11.9,0000.5,0032.73,0022.23,0021.22
2023-01-23 08:45:00,,0824.5,5.00,0.00,22.8,21.6,00.0,31.5,24.6,11.9,0000.4,0032.47,0022.04,0021.05
2023-01-23 08:46:00,,0824.5,5.03,0.00,22.8,21.5,00.0,31.5,24.5,11.9,0000.1,0032.87,0021.89,0020.94
2023-01-23 08:47:00,,0824.5,5.00,0.00,22.7,21.4,00.0,31.5,24.5,11.8,0000.7,0032.66,0021.85,0020.94
2023-01-23 08:48:00,,0824.4,5.01,0.00,22.7,21.4,00.0,31.5,24.5,11.7,0000.8,0032.76,0021.95,0021.03
2023-01-23 08:49:00,,0824.4,5.00,0.00,22.7,21.3,00.0,31.5,24.5,11.7,0000.2,0033.10,0022.04,0021.19
2023-01-23 08:50:00,,0824.5,5.00,0.00,22.7,21.2,00.0,31.5,24.4,11.6,0000.5,0033.59,0022.19,0021.33
2023-01-23 08:51:00,,0824.5,5.00,0.00,22.7,21.2,00.0,31.5,24.4,11.6,0000.7,0034.23,0022.27,0021.40
2023-01-23 08:52:00,,0824.4,5.02,0.00,22.7,21.2,00.0,31.5,24.4,11.6,0001.2,0034.71,0022.39,0021.48
2023-01-23 08:53:00,,0824.4,4.98,0.00,22.7,21.1,00.0,31.5,24.4,11.5,0001.5,0035.47,0022.53,0021.65
2023-01-23 08:54:00,,0824.5,5.00,0.00,22.7,21.2,00.0,31.5,24.4,11.6,0001.6,0035.16,0022.68,0021.78
2023-01-23 08:55:00,,0824.8,5.02,0.00,22.6,21.2,00.0,31.5,24.4,11.6,0002.1,0035.85,0022.80,0021.90
2023-01-23 08:56:00,,0824.6,4.99,0.00,22.6,21.2,00.0,31.5,24.4,11.6,0002.0,0036.44,0022.89,0022.03
2023-01-23 08:57:00,,0824.7,4.99,0.00,22.6,21.2,00.0,31.4,24.4,11.5,0001.8,0035.49,0022.89,0022.07
2023-01-23 08:58:00,,0824.8,5.00,0.00,22.6,21.2,00.0,31.4,24.4,11.4,0001.2,0035.55,0022.75,0021.94
2023-01-23 08:59:00,,0824.9,5.02,0.00,22.6,21.2,00.0,31.4,24.4,11.5,0001.3,0035.15,0022.50,0021.72
